Sauk Centre, MN

11:05 AM CST on December 11, 2019 (GMT -0600)
Sauk Centre

Weather History for KD39 - September, 2019

Change the Weather History Date:

Saturday, September 7, 2019

  Actual Average (WUND) Record (WUND)
Temperature  
Mean Temperature 51 °F -  
Max Temperature 57 °F - - (-1)
Min Temperature 45 °F - - (-1)
Degree Days  
Heating Degree Days 14    
Growing Degree Days 1 (Base 50)    
Moisture  
Dew Point 50 °F    
Average Humidity 92    
Maximum Humidity 100    
Minimum Humidity 80    
Precipitation  
Precipitation 0.11 in - - ()
Sea Level Pressure  
Sea Level Pressure 30.13 in    
Wind  
Wind Speed 3 mph ()    
Max Wind Speed 10 mph    
Max Gust Speed -    
Visibility 9.9 miles    
Events Rain    
Averages and records for this station are not official NWS values.
T = Trace of Precipitation, MM = Missing Value Source: Averaged Metar Reports

Daily Weather History Graph

Daily Weather History Graph

Search for Another Location

Airport or City:

Astronomy

Sep. 07, 2019 Rise Set
Actual Time 6:47 AM CDT 7:46 PM CDT
Civil Twilight 6:17 AM CDT 8:16 PM CDT
Nautical Twilight 5:41 AM CDT 8:53 PM CDT
Astronomical Twilight 5:03 AM CDT 9:31 PM CDT
Moon 4:18 PM CDT (9/7) 12:26 AM CDT (9/7)
Length of Visible Light 13h 59m
Length of Day
12h 58m
Waxing Gibbous, 66% of the Moon is Illuminated
Sep 7
Waxing Gibbous
Sep 13
Full
Sep 21
Last Quarter
Sep 28
New
Oct 5
First Quarter

Hourly Weather History & Observations

Time (CDT) Temp. Windchill Dew Point Humidity Pressure Visibility Wind Dir Wind Speed Gust Speed Precip Events Conditions
12:15 AM 52.3 °F - 50.7 °F 94% 30.13 in 10.0 mi WNW 5.8 mph - N/A   Clear
12:35 AM 52.0 °F - 49.3 °F 90% 30.13 in 10.0 mi WNW 3.5 mph - N/A   Clear
12:55 AM 50.5 °F - 49.6 °F 97% 30.14 in 10.0 mi Calm Calm - N/A   Clear
12:56 AM 50.5 °F - 49.6 °F 97% 30.14 in 10.0 mi Calm Calm - N/A   Clear
1:15 AM 50.0 °F - 49.1 °F 97% 30.14 in 10.0 mi West 3.5 mph - N/A   Clear
1:35 AM 49.3 °F - 48.4 °F 97% 30.14 in 10.0 mi WSW 3.5 mph - N/A   Clear
1:39 AM 49.6 °F - 48.9 °F 97% 30.14 in 10.0 mi WSW 4.6 mph - N/A   Clear
1:59 AM 49.8 °F - 48.9 °F 97% 30.14 in 10.0 mi WNW 3.5 mph - N/A   Clear
2:16 AM 50.0 °F - 48.6 °F 95% 30.14 in 10.0 mi WNW 3.5 mph - N/A   Clear
2:36 AM 50.4 °F - 49.3 °F 96% 30.14 in 10.0 mi NW 4.6 mph - N/A   Clear
2:55 AM 49.6 °F - 48.0 °F 94% 30.14 in 10.0 mi Calm Calm - N/A   Clear
3:15 AM 49.3 °F - 48.6 °F 97% 30.14 in 10.0 mi Calm Calm - N/A   Clear
3:19 AM 49.3 °F - 48.7 °F 98% 30.14 in 10.0 mi Calm Calm - N/A   Clear
3:38 AM 48.6 °F - 47.8 °F 97% 30.14 in 10.0 mi Calm Calm - N/A   Clear
3:55 AM 47.5 °F - 46.8 °F 97% 30.14 in 10.0 mi Calm Calm - N/A   Clear
4:15 AM 46.6 °F - 46.0 °F 98% 30.14 in 10.0 mi NW 3.5 mph - N/A   Clear
4:16 AM 46.6 °F - 46.0 °F 98% 30.14 in 10.0 mi NW 3.5 mph - N/A   Clear
4:35 AM 45.1 °F 43.7 °F 44.6 °F 98% 30.14 in 10.0 mi West 3.5 mph - N/A   Clear
4:36 AM 45.1 °F 43.7 °F 44.6 °F 98% 30.14 in 10.0 mi West 3.5 mph - N/A   Clear
4:55 AM 46.2 °F 45.0 °F 45.7 °F 98% 30.13 in 10.0 mi NW 3.5 mph - N/A   Clear
4:59 AM 46.4 °F - 45.9 °F 98% 30.13 in 10.0 mi Calm Calm - N/A   Clear
5:18 AM 45.9 °F - 45.5 °F 99% 30.13 in 10.0 mi Calm Calm - N/A   Clear
5:35 AM 46.4 °F - 45.9 °F 98% 30.13 in 10.0 mi Calm Calm - N/A   Clear
5:56 AM 46.0 °F - 45.7 °F 99% 30.13 in 10.0 mi Calm Calm - N/A   Clear
6:15 AM 45.5 °F - 45.3 °F 99% 30.13 in 7.0 mi Calm Calm - N/A   Clear
6:16 AM 45.7 °F - 45.3 °F 99% 30.13 in 7.0 mi Calm Calm - N/A   Clear
6:35 AM 46.6 °F - 46.6 °F 100% 30.12 in 10.0 mi Calm Calm - N/A   Clear
6:36 AM 46.8 °F - 46.6 °F 99% 30.12 in 10.0 mi Calm Calm - N/A   Clear
6:58 AM 46.8 °F - 46.4 °F 99% 30.13 in 10.0 mi Calm Calm - N/A   Clear
7:16 AM 47.1 °F - 46.4 °F 97% 30.13 in 10.0 mi Calm Calm - N/A   Clear
7:35 AM 48.4 °F - 47.7 °F 97% 30.13 in 10.0 mi Calm Calm - N/A   Clear
7:36 AM 48.4 °F - 47.7 °F 97% 30.13 in 10.0 mi Calm Calm - N/A   Clear
7:55 AM 50.0 °F - 49.1 °F 97% 30.13 in 10.0 mi Calm Calm - N/A   Clear
7:56 AM 50.0 °F - 49.1 °F 97% 30.13 in 10.0 mi Calm Calm - N/A   Clear
8:15 AM 51.1 °F - 49.6 °F 95% 30.13 in 10.0 mi North 4.6 mph - N/A   Clear
8:20 AM 51.4 °F - 49.6 °F 94% 30.12 in 10.0 mi NNE 5.8 mph - N/A   Clear
8:37 AM 52.7 °F - 48.2 °F 85% 30.11 in 10.0 mi NNE 8.1 mph - N/A   Scattered Clouds
8:55 AM 52.7 °F - 49.1 °F 88% 30.12 in 10.0 mi NNW 6.9 mph - N/A   Scattered Clouds
9:15 AM 52.9 °F - 49.1 °F 87% 30.11 in 10.0 mi NNE 9.2 mph - N/A   Scattered Clouds
9:16 AM 52.9 °F - 49.1 °F 87% 30.11 in 10.0 mi NNE 10.4 mph - N/A   Scattered Clouds
9:35 AM 54.1 °F - 49.6 °F 85% 30.11 in 10.0 mi North 10.4 mph - N/A   Clear
9:36 AM 54.1 °F - 49.6 °F 85% 30.11 in 10.0 mi North 10.4 mph - N/A   Clear
9:58 AM 55.0 °F - 50.4 °F 84% 30.13 in 10.0 mi Calm Calm - N/A   Clear
10:16 AM 55.6 °F - 50.5 °F 83% 30.13 in 10.0 mi ENE 3.5 mph - N/A   Clear
10:35 AM 55.6 °F - 50.4 °F 83% 30.13 in 10.0 mi ENE 3.5 mph - N/A   Clear
10:36 AM 55.6 °F - 50.2 °F 82% 30.13 in 10.0 mi Calm Calm - N/A   Clear
10:55 AM 55.6 °F - 50.5 °F 83% 30.14 in 10.0 mi Calm Calm - N/A   Clear
10:56 AM 55.6 °F - 50.5 °F 83% 30.14 in 10.0 mi Calm Calm - N/A   Clear
11:15 AM 55.8 °F - 50.4 °F 82% 30.14 in 10.0 mi NE 3.5 mph - N/A   Scattered Clouds
11:20 AM 55.8 °F - 50.4 °F 82% 30.14 in 10.0 mi Calm Calm - N/A   Scattered Clouds
11:37 AM 55.8 °F - 50.4 °F 82% 30.13 in 10.0 mi Calm Calm - N/A Rain Light Rain
11:56 AM 55.8 °F - 50.7 °F 83% 30.13 in 10.0 mi Calm Calm - N/A   Clear
12:15 PM 56.1 °F - 51.1 °F 83% 30.14 in 10.0 mi Calm Calm - N/A   Clear
12:16 PM 56.3 °F - 51.1 °F 83% 30.14 in 10.0 mi Calm Calm - N/A   Clear
12:35 PM 56.8 °F - 51.1 °F 81% 30.14 in 10.0 mi Calm Calm - N/A   Scattered Clouds
12:36 PM 56.8 °F - 51.1 °F 81% 30.14 in 10.0 mi Calm Calm - N/A   Scattered Clouds
12:58 PM 57.2 °F - 51.1 °F 80% 30.14 in 10.0 mi NNW 4.6 mph - N/A   Scattered Clouds
1:16 PM 57.4 °F - 51.6 °F 81% 30.14 in 10.0 mi NNW 6.9 mph - N/A   Clear
1:35 PM 56.8 °F - 52.2 °F 84% 30.14 in 10.0 mi North 6.9 mph - N/A Rain Light Rain
1:56 PM 56.3 °F - 53.1 °F 89% 30.13 in 10.0 mi North 6.9 mph - N/A Rain Light Rain
2:19 PM 55.4 °F - 52.5 °F 90% 30.13 in 10.0 mi North 5.8 mph - N/A Rain Light Rain
2:36 PM 55.4 °F - 52.7 °F 91% 30.13 in 10.0 mi North 5.8 mph - 0.01 in Rain Light Rain
2:55 PM 55.9 °F - 53.6 °F 92% 30.12 in 10.0 mi NNE 6.9 mph - 0.01 in   Light Drizzle
3:15 PM 55.8 °F - 52.5 °F 89% 30.11 in 10.0 mi NNE 5.8 mph - N/A Rain Light Rain
3:16 PM 55.8 °F - 52.5 °F 89% 30.11 in 10.0 mi NNE 5.8 mph - N/A Rain Light Rain
3:39 PM 56.1 °F - 53.2 °F 90% 30.11 in 10.0 mi North 6.9 mph - N/A Rain Light Rain
3:56 PM 56.3 °F - 53.1 °F 89% 30.11 in 10.0 mi NNE 5.8 mph - N/A   Light Drizzle
4:15 PM 56.3 °F - 53.4 °F 90% 30.11 in 10.0 mi NNE 5.8 mph - N/A Rain Light Rain
4:35 PM 56.3 °F - 52.9 °F 88% 30.11 in 10.0 mi NNE 3.5 mph - N/A Rain Light Rain
4:36 PM 56.3 °F - 52.9 °F 88% 30.11 in 10.0 mi NNE 3.5 mph - N/A Rain Light Rain
4:55 PM 56.1 °F - 52.5 °F 88% 30.11 in 10.0 mi NE 5.8 mph - N/A   Mostly Cloudy
4:59 PM 55.9 °F - 52.7 °F 89% 30.11 in 10.0 mi NNE 4.6 mph - N/A   Overcast
5:17 PM 55.9 °F - 52.7 °F 89% 30.11 in 10.0 mi NE 3.5 mph - N/A   Overcast
5:36 PM 55.9 °F - 52.9 °F 89% 30.10 in 10.0 mi NNE 4.6 mph - N/A Rain Light Rain
5:55 PM 55.6 °F - 52.9 °F 91% 30.10 in 10.0 mi NNE 4.6 mph - N/A   Light Drizzle
5:56 PM 55.6 °F - 52.9 °F 91% 30.10 in 10.0 mi NNE 4.6 mph - N/A   Light Drizzle
6:15 PM 55.4 °F - 53.1 °F 92% 30.10 in 10.0 mi ENE 8.1 mph - N/A Rain Light Rain
6:16 PM 55.4 °F - 53.1 °F 92% 30.10 in 10.0 mi ENE 8.1 mph - N/A Rain Light Rain
6:38 PM 54.3 °F - 52.3 °F 93% 30.10 in 10.0 mi ENE 8.1 mph - 0.02 in Rain Light Rain
6:57 PM 54.0 °F - 52.3 °F 94% 30.11 in 10.0 mi East 4.6 mph - 0.03 in Rain Light Rain
7:16 PM 53.2 °F - 50.9 °F 92% 30.11 in 10.0 mi ENE 8.1 mph - N/A Rain Light Rain
7:35 PM 52.9 °F - 50.4 °F 91% 30.11 in 10.0 mi NE 5.8 mph - N/A Rain Light Rain
7:36 PM 52.9 °F - 50.5 °F 92% 30.11 in 10.0 mi NE 5.8 mph - N/A Rain Light Rain
7:55 PM 52.7 °F - 50.7 °F 93% 30.12 in 10.0 mi NE 6.9 mph - 0.01 in Rain Light Rain
7:59 PM 52.7 °F - 50.7 °F 93% 30.12 in 10.0 mi ENE 5.8 mph - 0.01 in Rain Light Rain
8:17 PM 52.7 °F - 50.9 °F 94% 30.12 in 10.0 mi NE 5.8 mph - N/A Rain Rain
8:36 PM 52.7 °F - 51.1 °F 94% 30.13 in 10.0 mi NE 4.6 mph - 0.01 in Rain Light Rain
8:55 PM 52.7 °F - 51.1 °F 94% 30.13 in 10.0 mi NE 3.5 mph - 0.01 in   Light Drizzle
8:56 PM 52.7 °F - 51.1 °F 94% 30.13 in 10.0 mi NE 3.5 mph - 0.01 in   Light Drizzle
9:15 PM 52.7 °F - 51.1 °F 94% 30.14 in 10.0 mi NNE 3.5 mph - N/A Rain Light Rain
9:37 PM 52.7 °F - 51.3 °F 95% 30.14 in 10.0 mi NE 4.6 mph - 0.01 in   Light Drizzle
9:56 PM 52.3 °F - 50.9 °F 95% 30.14 in 10.0 mi NNE 5.8 mph - 0.01 in Rain Light Rain
10:16 PM 52.3 °F - 50.5 °F 94% 30.14 in 10.0 mi NE 4.6 mph - N/A Rain Light Rain
10:35 PM 52.2 °F - 50.5 °F 94% 30.14 in 10.0 mi ENE 3.5 mph - N/A Rain Light Rain
10:36 PM 52.2 °F - 50.5 °F 94% 30.14 in 10.0 mi ENE 4.6 mph - N/A Rain Light Rain
10:55 PM 52.2 °F - 50.5 °F 94% 30.15 in 10.0 mi ENE 4.6 mph - 0.01 in Rain Light Rain
10:59 PM 52.2 °F - 50.5 °F 94% 30.15 in 10.0 mi ENE 3.5 mph - 0.01 in Rain Light Rain
11:17 PM 51.8 °F - 50.2 °F 94% 30.15 in 10.0 mi NE 4.6 mph - 0.01 in Rain Light Rain
11:36 PM 51.8 °F - 50.0 °F 94% 30.14 in 10.0 mi NE 6.9 mph - 0.02 in Rain Rain
11:55 PM 51.8 °F - 50.0 °F 94% 30.14 in 10.0 mi NE 8.1 mph - 0.03 in Rain Light Rain
11:56 PM 51.8 °F - 50.0 °F 94% 30.14 in 10.0 mi NE 8.1 mph - 0.03 in Rain Light Rain